Regional Weather Roundup
Issued by NWS Little Rock, AR

Home | Current Version | Previous Version | Graphics & Text | Print | Product List | Glossary On
Versions: 1 2 3 4 5 6 7 8 9 10 11 12 13 14 15 16 17 18 19 20 21 22 23 24 25 26 27 28 29 30 31 32 33 34 35 36 37 38 39 40 41 42 43 44 45 46 47 48 49 50
000
ASUS44 KLZK 030505
RWRLZK

WEATHER ROUNDUP FOR ARKANSAS
NATIONAL WEATHER SERVICE LITTLE ROCK AR
1200 AM CDT THU SEP 03 2015

NOTE: "FAIR" INDICATES FEW OR NO CLOUDS BELOW 12,000 FEET WITH NO
SIGNIFICANT WEATHER AND/OR OBSTRUCTIONS TO VISIBILITY.

ARZ001-003-010-029-030600-
NORTHWEST ARKANSAS

CITY           SKY/WX    TMP DP  RH WIND       PRES   REMARKS
FAYETTEVILLE   CLEAR     68  68 100 CALM      30.03S
FORT SMITH     CLEAR     78  65  63 NE5       29.98S
HARRISON       CLEAR     71  66  84 S5        30.05S
BENTONVILLE    CLEAR     72  64  78 SE6       30.03S
ROGERS         CLEAR     73  70  90 SE7       30.04S
SILOAM SPGS    CLEAR     73  63  68 SE8       30.00F
HIGHFILL       CLEAR     72  68  87 CALM      30.02F
$$

ARZ004-005-016-030600-
NORTH CENTRAL ARKANSAS

CITY           SKY/WX    TMP DP  RH WIND       PRES   REMARKS
BATESVILLE     CLEAR     73  70  88 CALM      30.01S
FLIPPIN        CLEAR     75  63  64 SW3       30.01S
MTN HOME       CLEAR     73  67  81 CALM      30.02F
$$

ARZ040-041-030600-
WEST CENTRAL ARKANSAS

CITY           SKY/WX    TMP DP  RH WIND       PRES   REMARKS
MENA           CLEAR     72  68  88 CALM      30.03S
MOUNT IDA      CLEAR     71  67  87 CALM      30.00S
$$

ARZ009-017-025-026-028-030600-
NORTHEAST ARKANSAS

CITY           SKY/WX    TMP DP  RH WIND       PRES   REMARKS
JONESBORO      CLEAR     71  71 100 CALM      30.01R
NEWPORT        CLEAR     75  72  91 S5        30.01F
WALNUT RIDGE   CLEAR     75  68  78 CALM      30.01S
BLYTHEVILLE    CLEAR     73  71  93 SE3       30.02R
$$

ARZ022-023-033-042-044-030600-
CENTRAL ARKANSAS

CITY           SKY/WX    TMP DP  RH WIND       PRES   REMARKS
LITTLE ROCK    CLEAR     76  72  87 CALM      30.01R
N LITTLE ROCK  CLEAR     73  72  96 CALM      30.01R
JACKSONVILLE   CLEAR     72  71  99 CALM      30.00S
SEARCY         CLEAR     71  70  96 W3        30.02S
HOT SPRINGS    CLEAR     73  67  81 CALM      30.01S
RUSSELLVILLE   CLEAR     73  69  87 CALM      30.00S
$$

ARZ036-030600-
EAST ARKANSAS

CITY           SKY/WX    TMP DP  RH WIND       PRES   REMARKS
WEST MEMPHIS   CLEAR     72  72 100 SE3       30.00R
$$

ARZ050-053-066-070-073-030600-
SOUTHWEST ARKANSAS

CITY           SKY/WX    TMP DP  RH WIND       PRES   REMARKS
ARKADELPHIA    FAIR      71  71 100 CALM      30.00S
CAMDEN         CLEAR     70  68  94 CALM      29.99S FOG
TEXARKANA      CLEAR     76  68  76 E3        29.98F
EL DORADO      CLEAR     72  68  87 CALM      29.99F
DE QUEEN       CLEAR     74  71  91 E5        29.97S
$$

ARZ056-057-069-030600-
SOUTHEAST ARKANSAS

CITY           SKY/WX    TMP DP  RH WIND       PRES   REMARKS
PINE BLUFF     CLEAR     71  70  96 CALM      30.00S FOG
STUTTGART      CLEAR     73  66  78 CALM      30.01R
MONTICELLO     CLEAR     72  72 100 CALM      29.99F

$$





USA.gov is the U.S. government's official web portal to all federal, state and local government web resources and services.